COSMOS 2520

Last updated on Nov. 19, 2019, 4:25 a.m. UTC

1 42907U 17046A   19322.80000036  .00000140  00000-0  00000+0 0  9998
2 42907   0.0083  80.6969 0001001 323.6913 346.1631  1.00270405  8306
UTC
Height (km)
Latitude
Longitude
Inclination
Orbital Period
UTC large
Height (km)
Speed (km/s)
/
Latitude / Longitude
Inclination (degrees)
Orbital Period (minutes)
Azimuth
Elevation
Range (km)
Doppler Factor
iOS Compass Heading
iOS Angle

Next 30 passes for location: Hong Kong

Rise time Rise Azimuth (degrees) Set time Set Azimuth (degrees) Duration Max altitude (degrees)

No matching passes for this satellites